,,,PA_Meas_PMT16A,,PR_Meas_QMR101_102,,RH_Meas_QMH101,,SR_Meas_QMS101,,TA_Meas_QMH101,,GenWind,,GenWind,
date,time,status,PA,status,PR,status,RH,status,SR,status,TA,status,DirAvg,status,SpdAvg,
2010-09-24, 00:00:04,VALID,1001.02,VALID,0,VALID,71.1241,VALID,58.1254,VALID,29.4115,VALID,78,VALID,1.13398,
2010-09-24, 00:01:04,VALID,1001.03,VALID,0,VALID,72.0777,VALID,56.3153,VALID,29.3508,VALID,41,VALID,0.929688,
2010-09-24, 00:02:04,VALID,1001.03,VALID,0,VALID,71.5284,VALID,59.5333,VALID,29.3748,VALID,356,VALID,1.16953,
2010-09-24, 00:03:04,VALID,1001.11,VALID,0,VALID,72.0319,VALID,57.1198,VALID,29.3553,VALID,24,VALID,0.840625,
2010-09-24, 00:04:04,VALID,1001.07,VALID,0,VALID,72.3599,VALID,55.6113,VALID,29.3358,VALID,83,VALID,1.25156,
2010-09-24, 00:05:04,VALID,1001.11,VALID,0,VALID,73.0618,VALID,53.8012,VALID,29.2751,VALID,37,VALID,1.05195,
2010-09-24, 00:06:04,VALID,1001.12,VALID,0,VALID,71.8564,VALID,51.2871,VALID,29.2556,VALID,49,VALID,0.917578,
2010-09-24, 00:07:04,VALID,1001.13,VALID,0,VALID,72.5049,VALID,43.8454,VALID,29.2383,VALID,84,VALID,0.892578,
2010-09-24, 00:08:04,VALID,1001.14,VALID,0,VALID,72.8177,VALID,38.2139,VALID,29.1971,VALID,51,VALID,0.582812,
2010-09-24, 00:09:04,VALID,1001.22,VALID,0,VALID,72.8024,VALID,40.5269,VALID,29.1776,VALID,55,VALID,0.960938,
2010-09-24, 00:10:04,VALID,1001.19,VALID,0,VALID,71.7038,VALID,40.8286,VALID,29.1191,VALID,14,VALID,2.88945,
2010-09-24, 00:11:04,VALID,1001.25,VALID,0,VALID,72.1921,VALID,39.8229,VALID,29.0628,VALID,23,VALID,1.34023,
2010-09-24, 00:12:04,VALID,1001.24,VALID,0,VALID,72.4133,VALID,38.6162,VALID,29.0021,VALID,19,VALID,2.15508,
2010-09-24, 00:13:04,VALID,1001.27,VALID,0,VALID,73.1991,VALID,36.806,VALID,28.9826,VALID,11,VALID,0.753516,
2010-09-24, 00:14:04,VALID,1001.3,VALID,0,VALID,73.4966,VALID,35.0965,VALID,28.9631,VALID,37,VALID,1.10039,
2010-09-24, 00:15:04,VALID,1001.31,VALID,0,VALID,73.6797,VALID,34.3925,VALID,28.9219,VALID,23,VALID,0.832812,
2010-09-24, 00:16:04,VALID,1001.32,VALID,0,VALID,73.756,VALID,33.7892,VALID,28.8851,VALID,90,VALID,1.09766,
2010-09-24, 00:17:04,VALID,1001.33,VALID,0,VALID,73.6034,VALID,32.0796,VALID,28.8656,VALID,40,VALID,0.960938,
2010-09-24, 00:18:04,VALID,1001.33,VALID,0,VALID,73.428,VALID,28.6604,VALID,28.8072,VALID,84,VALID,1.29922,
2010-09-24, 00:19:04,VALID,1001.33,VALID,0,VALID,73.9086,VALID,27.5542,VALID,28.7682,VALID,356,VALID,1.33398,
2010-09-24, 00:20:04,VALID,1001.33,VALID,0,VALID,74.2137,VALID,26.2469,VALID,28.7704,VALID,19,VALID,1.43008,
2010-09-24, 00:21:04,VALID,1001.36,VALID,0,VALID,74.8469,VALID,24.839,VALID,28.6924,VALID,72,VALID,0.9625,
2010-09-24, 00:22:04,VALID,1001.31,VALID,0,VALID,74.2672,VALID,23.8334,VALID,28.6707,VALID,354,VALID,1.21641,
2010-09-24, 00:23:04,VALID,1001.33,VALID,0,VALID,74.7173,VALID,22.7272,VALID,28.6317,VALID,9,VALID,2.52969,
2010-09-24, 00:24:04,VALID,1001.36,VALID,0,VALID,74.6638,VALID,21.621,VALID,28.5732,VALID,27,VALID,1.61758,
2010-09-24, 00:25:04,VALID,1001.38,VALID,0,VALID,74.9232,VALID,20.5148,VALID,28.5537,VALID,24,VALID,1.84453,
2010-09-24, 00:26:04,VALID,1001.44,VALID,0,VALID,74.9843,VALID,19.3081,VALID,28.5537,VALID,58,VALID,1.65977,
2010-09-24, 00:27:04,VALID,1001.39,VALID,0,VALID,75.0911,VALID,18.1013,VALID,28.5342,VALID,22,VALID,1.32344,
2010-09-24, 00:28:04,VALID,1001.44,VALID,0,VALID,75.4344,VALID,16.9951,VALID,28.4953,VALID,32,VALID,0.801953,
2010-09-24, 00:29:04,VALID,1001.48,VALID,0,VALID,75.3123,VALID,15.9895,VALID,28.4974,VALID,30,VALID,2.51289,
2010-09-24, 00:30:04,VALID,1001.5,VALID,0,VALID,75.5183,VALID,15.0844,VALID,28.4758,VALID,27,VALID,1.30273,
2010-09-24, 00:31:04,VALID,1001.52,VALID,0,VALID,75.77,VALID,14.2799,VALID,28.4758,VALID,20,VALID,1.59258,
2010-09-24, 00:32:04,VALID,1001.6,VALID,0,VALID,76.121,VALID,13.576,VALID,28.4563,VALID,24,VALID,0.978125,
2010-09-24, 00:33:04,VALID,1001.6,VALID,0,VALID,76.4185,VALID,12.7715,VALID,28.4173,VALID,9,VALID,0.5,
2010-09-24, 00:34:04,VALID,1001.63,VALID,0,VALID,76.1439,VALID,11.7659,VALID,28.4173,VALID,54,VALID,1.27344,
2010-09-24, 00:35:04,VALID,1001.64,VALID,0,VALID,76.2354,VALID,10.5591,VALID,28.3783,VALID,12,VALID,1.51563,
2010-09-24, 00:36:04,VALID,1001.65,VALID,0,VALID,76.7618,VALID,9.35235,VALID,28.3588,VALID,24,VALID,0.703516,
2010-09-24, 00:37:04,VALID,1001.65,VALID,0,VALID,76.7084,VALID,8.34672,VALID,28.3393,VALID,30,VALID,1.23008,
2010-09-24, 00:38:04,VALID,1001.59,VALID,0,VALID,76.5787,VALID,7.44166,VALID,28.3003,VALID,358,VALID,1.86406,
2010-09-24, 00:39:04,VALID,1001.61,VALID,0,VALID,77.0135,VALID,6.63715,VALID,28.2592,VALID,18,VALID,1.70273,
2010-09-24, 00:40:04,VALID,1001.57,VALID,0,VALID,77.6086,VALID,5.83265,VALID,28.2419,VALID,27,VALID,1.25937,
2010-09-24, 00:41:04,VALID,1001.59,VALID,0,VALID,77.4026,VALID,4.92758,VALID,28.1813,VALID,10,VALID,1.60781,
2010-09-24, 00:42:04,VALID,1001.55,VALID,0,VALID,77.8375,VALID,4.12308,VALID,28.1639,VALID,21,VALID,1.23945,
2010-09-24, 00:43:04,VALID,1001.58,VALID,0,VALID,78.1579,VALID,3.72083,VALID,28.0838,VALID,36,VALID,1.80234,
2010-09-24, 00:44:04,VALID,1001.59,VALID,0,VALID,78.1503,VALID,3.21801,VALID,28.0859,VALID,16,VALID,1.99727,
2010-09-24, 00:45:04,VALID,1001.56,VALID,0,VALID,78.6614,VALID,2.91633,VALID,28.047,VALID,9,VALID,1.48438,
2010-09-24, 00:46:04,VALID,1001.56,VALID,0,VALID,78.9818,VALID,2.41351,VALID,28.0275,VALID,17,VALID,1.5543,
2010-09-24, 00:47:04,VALID,1001.59,VALID,0,VALID,78.9131,VALID,1.81013,VALID,27.9669,VALID,35,VALID,2.22891,
2010-09-24, 00:48:04,VALID,1001.62,VALID,0,VALID,78.9894,VALID,1.30732,VALID,27.9669,VALID,359,VALID,1.86758,
2010-09-24, 00:49:04,VALID,1001.66,VALID,0,VALID,79.3251,VALID,1.00563,VALID,27.9474,VALID,18,VALID,1.16289,
2010-09-24, 00:50:04,VALID,1001.65,VALID,0,VALID,79.0733,VALID,0.804504,VALID,27.9279,VALID,27,VALID,2.79648,
2010-09-24, 00:51:04,VALID,1001.65,VALID,0,VALID,79.3327,VALID,0.703941,VALID,27.9279,VALID,12,VALID,1.37656,
2010-09-24, 00:52:04,VALID,1001.63,VALID,0,VALID,79.2183,VALID,0.603378,VALID,27.9279,VALID,19,VALID,2.87773,
2010-09-24, 00:53:04,VALID,1001.63,VALID,0,VALID,79.3327,VALID,0.402252,VALID,27.9669,VALID,5,VALID,1.24258,
2010-09-24, 00:54:04,VALID,1001.59,VALID,0,VALID,79.4624,VALID,0.301689,VALID,27.9474,VALID,17,VALID,1.99688,
2010-09-24, 00:55:04,VALID,1001.64,VALID,0,VALID,79.287,VALID,0.301689,VALID,27.9474,VALID,21,VALID,2.07813,
2010-09-24, 00:56:04,VALID,1001.61,VALID,0,VALID,79.1954,VALID,0.201126,VALID,27.9279,VALID,8,VALID,2.41328,
2010-09-24, 00:57:04,VALID,1001.64,VALID,0,VALID,79.3632,VALID,0.201126,VALID,27.9279,VALID,31,VALID,2.07617,
2010-09-24, 00:58:04,VALID,1001.63,VALID,0,VALID,79.4319,VALID,0.201126,VALID,27.9279,VALID,16,VALID,1.76367,
2010-09-24, 00:59:04,VALID,1001.64,VALID,0,VALID,79.5616,VALID,0.100563,VALID,27.9279,VALID,19,VALID,1.64297,
2010-09-24, 01:00:04,VALID,1001.64,VALID,0,VALID,79.5692,VALID,0.201126,VALID,27.8694,VALID,30,VALID,1.86758,
2010-09-24, 01:01:04,VALID,1001.63,VALID,0,VALID,80.0041,VALID,0.100563,VALID,27.8911,VALID,8,VALID,1.91367,
2010-09-24, 01:02:04,VALID,1001.66,VALID,0,VALID,80.0422,VALID,0.100563,VALID,27.8305,VALID,15,VALID,1.43281,
2010-09-24, 01:03:04,VALID,1001.68,VALID,0,VALID,80.2177,VALID,0,VALID,27.8131,VALID,22,VALID,1.69531,
2010-09-24, 01:04:04,VALID,1001.71,VALID,0,VALID,80.0575,VALID,0,VALID,27.8131,VALID,20,VALID,2.78633,
2010-09-24, 01:05:04,VALID,1001.71,VALID,0,VALID,80.0422,VALID,0,VALID,27.8326,VALID,21,VALID,2.76719,
2010-09-24, 01:06:04,VALID,1001.72,VALID,0,VALID,80.0804,VALID,0,VALID,27.8326,VALID,359,VALID,2.16094,
2010-09-24, 01:07:04,VALID,1001.73,VALID,0,VALID,80.0804,VALID,0,VALID,27.8131,VALID,338,VALID,1.58516,
2010-09-24, 01:08:04,VALID,1001.71,VALID,0,VALID,80.1719,VALID,0,VALID,27.8131,VALID,20,VALID,1.36563,
2010-09-24, 01:09:04,VALID,1001.76,VALID,0,VALID,80.2558,VALID,0,VALID,27.7936,VALID,18,VALID,2.37148,
2010-09-24, 01:10:04,VALID,1001.75,VALID,0,VALID,80.2482,VALID,0,VALID,27.7936,VALID,26,VALID,2.13359,
2010-09-24, 01:11:04,VALID,1001.75,VALID,0,VALID,80.0422,VALID,0,VALID,27.8326,VALID,20,VALID,1.92383,
2010-09-24, 01:12:04,VALID,1001.73,VALID,0,VALID,79.9812,VALID,0,VALID,27.8326,VALID,60,VALID,1.64375,
2010-09-24, 01:13:04,VALID,1001.76,VALID,0,VALID,80.1338,VALID,0,VALID,27.8326,VALID,36,VALID,1.40313,
2010-09-24, 01:14:04,VALID,1001.79,VALID,0,VALID,80.2406,VALID,0,VALID,27.8131,VALID,13,VALID,1.10977,
2010-09-24, 01:15:04,VALID,1001.81,VALID,0,VALID,80.3092,VALID,0,VALID,27.772,VALID,6,VALID,1.5668,
2010-09-24, 01:16:04,VALID,1001.82,VALID,0,VALID,80.5533,VALID,0,VALID,27.7546,VALID,18,VALID,1.70234,
2010-09-24, 01:17:04,VALID,1001.84,VALID,0,VALID,80.5686,VALID,0,VALID,27.7567,VALID,35,VALID,1.73359,
2010-09-24, 01:18:04,VALID,1001.83,VALID,0,VALID,80.8204,VALID,0,VALID,27.7157,VALID,12,VALID,1.05352,
2010-09-24, 01:19:04,VALID,1001.84,VALID,0,VALID,80.6983,VALID,0,VALID,27.6962,VALID,36,VALID,1.80469,
2010-09-24, 01:20:04,VALID,1001.84,VALID,0,VALID,80.7975,VALID,0,VALID,27.6962,VALID,7,VALID,2.02734,
2010-09-24, 01:21:04,VALID,1001.83,VALID,0,VALID,80.9882,VALID,0,VALID,27.6767,VALID,352,VALID,1.60352,
2010-09-24, 01:22:04,VALID,1001.85,VALID,0,VALID,80.7593,VALID,0,VALID,27.6767,VALID,19,VALID,2.68203,
2010-09-24, 01:23:04,VALID,1001.85,VALID,0,VALID,80.8738,VALID,0,VALID,27.6941,VALID,36,VALID,2.02539,
2010-09-24, 01:24:04,VALID,1001.84,VALID,0,VALID,80.6296,VALID,0,VALID,27.7351,VALID,6,VALID,1.75469,
2010-09-24, 01:25:04,VALID,1001.86,VALID,0,VALID,81.0721,VALID,0,VALID,27.6941,VALID,38,VALID,0.64375,
2010-09-24, 01:26:04,VALID,1001.88,VALID,0,VALID,80.9501,VALID,0,VALID,27.6767,VALID,11,VALID,1.99766,
2010-09-24, 01:27:04,VALID,1001.89,VALID,0,VALID,81.0721,VALID,0,VALID,27.6767,VALID,26,VALID,1.54297,
2010-09-24, 01:28:04,VALID,1001.86,VALID,0,VALID,81.2018,VALID,0,VALID,27.6767,VALID,33,VALID,2.01406,
2010-09-24, 01:29:04,VALID,1001.9,VALID,0,VALID,81.2247,VALID,0,VALID,27.6767,VALID,27,VALID,1.28594,
2010-09-24, 01:30:04,VALID,1001.84,VALID,0,VALID,81.2705,VALID,0,VALID,27.6572,VALID,27,VALID,2.21133,
2010-09-24, 01:31:04,VALID,1001.88,VALID,0,VALID,81.2399,VALID,0,VALID,27.5966,VALID,8,VALID,3.02383,
2010-09-24, 01:32:04,VALID,1001.88,VALID,0,VALID,81.1179,VALID,0,VALID,27.6356,VALID,21,VALID,2.45234,
2010-09-24, 01:33:04,VALID,1001.91,VALID,0,VALID,81.1865,VALID,0,VALID,27.6983,VALID,27,VALID,1.67305,
2010-09-24, 01:34:04,VALID,1001.92,VALID,0,VALID,81.3849,VALID,0,VALID,27.6356,VALID,8,VALID,1.77461,
2010-09-24, 01:35:04,VALID,1001.91,VALID,0,VALID,81.2552,VALID,0,VALID,27.6377,VALID,34,VALID,1.35234,
2010-09-24, 01:36:04,VALID,1001.95,VALID,0,VALID,81.3925,VALID,0,VALID,27.5987,VALID,3,VALID,2.31719,
2010-09-24, 01:37:04,VALID,1001.95,VALID,0,VALID,81.6672,VALID,0,VALID,27.5772,VALID,10,VALID,1.93047,
2010-09-24, 01:38:04,VALID,1002,VALID,0,VALID,81.507,VALID,0,VALID,27.5382,VALID,36,VALID,2.09531,
2010-09-24, 01:39:04,VALID,1002.02,VALID,0,VALID,81.4536,VALID,0,VALID,27.5772,VALID,30,VALID,1.6543,
2010-09-24, 01:40:04,VALID,1002.06,VALID,0,VALID,81.4383,VALID,0,VALID,27.5987,VALID,16,VALID,3.01094,
2010-09-24, 01:41:04,VALID,1002.06,VALID,0,VALID,81.3773,VALID,0,VALID,27.6377,VALID,15,VALID,1.24336,
2010-09-24, 01:42:04,VALID,1002.02,VALID,0,VALID,81.301,VALID,0,VALID,27.6161,VALID,33,VALID,2.10156,
2010-09-24, 01:43:04,VALID,1002.04,VALID,0,VALID,81.507,VALID,0,VALID,27.6203,VALID,20,VALID,1.71445,
2010-09-24, 01:44:04,VALID,1002,VALID,0,VALID,81.7358,VALID,0,VALID,27.5772,VALID,46,VALID,1.04023,
2010-09-24, 01:45:04,VALID,1001.96,VALID,0,VALID,81.6367,VALID,0,VALID,27.5577,VALID,19,VALID,1.71367,
2010-09-24, 01:46:04,VALID,1002.02,VALID,0,VALID,81.4002,VALID,0,VALID,27.5598,VALID,16,VALID,1.35234,
2010-09-24, 01:47:04,VALID,1002.02,VALID,0,VALID,81.2247,VALID,0,VALID,27.5772,VALID,357,VALID,2.26328,
2010-09-24, 01:48:04,VALID,1002.01,VALID,0,VALID,81.095,VALID,0,VALID,27.6182,VALID,5,VALID,1.99922,
2010-09-24, 01:49:04,VALID,1002.04,VALID,0,VALID,80.9882,VALID,0,VALID,27.6377,VALID,10,VALID,2.32813,
2010-09-24, 01:50:04,VALID,1002.05,VALID,0,VALID,80.889,VALID,0,VALID,27.6572,VALID,16,VALID,1.79609,
2010-09-24, 01:51:04,VALID,1002.08,VALID,0,VALID,81.0034,VALID,0,VALID,27.6572,VALID,12,VALID,1.90469,
2010-09-24, 01:52:04,VALID,1002.09,VALID,0,VALID,80.9424,VALID,0,VALID,27.6182,VALID,14,VALID,1.25312,
2010-09-24, 01:53:04,VALID,1002.13,VALID,0,VALID,80.9195,VALID,0,VALID,27.6377,VALID,19,VALID,2.18086,
2010-09-24, 01:54:04,VALID,1002.15,VALID,0,VALID,81.1637,VALID,0,VALID,27.6182,VALID,14,VALID,1.75195,
2010-09-24, 01:55:04,VALID,1002.21,VALID,0,VALID,81.1408,VALID,0,VALID,27.6182,VALID,16,VALID,1.14453,
2010-09-24, 01:56:04,VALID,1002.18,VALID,0,VALID,81.1179,VALID,0,VALID,27.5577,VALID,20,VALID,2.16523,
2010-09-24, 01:57:04,VALID,1002.21,VALID,0,VALID,80.7059,VALID,0,VALID,27.6572,VALID,23,VALID,2.87578,
2010-09-24, 01:58:04,VALID,1002.22,VALID,0,VALID,80.7364,VALID,0.100563,VALID,27.6746,VALID,34,VALID,1.62422,
2010-09-24, 01:59:04,VALID,1002.21,VALID,0,VALID,81.0111,VALID,0,VALID,27.6767,VALID,9,VALID,1.34375,
2010-09-24, 02:00:04,VALID,1002.2,VALID,0,VALID,80.7593,VALID,0.100563,VALID,27.6551,VALID,31,VALID,1.3543,
2010-09-24, 02:01:04,VALID,1002.21,VALID,0,VALID,80.6983,VALID,0.100563,VALID,27.6572,VALID,29,VALID,1.72148,
2010-09-24, 02:02:04,VALID,1002.19,VALID,0,VALID,80.7288,VALID,0,VALID,27.6572,VALID,2,VALID,1.85078,
2010-09-24, 02:03:04,VALID,1002.21,VALID,0,VALID,80.9958,VALID,0.100563,VALID,27.6377,VALID,11,VALID,1.52539,
2010-09-24, 02:04:04,VALID,1002.2,VALID,0,VALID,81.095,VALID,0,VALID,27.5772,VALID,20,VALID,2.24375,
2010-09-24, 02:05:04,VALID,1002.19,VALID,0,VALID,80.8432,VALID,0.100563,VALID,27.6767,VALID,34,VALID,1.91172,
2010-09-24, 02:06:04,VALID,1002.21,VALID,0,VALID,81.0034,VALID,0,VALID,27.6572,VALID,33,VALID,1.1,
2010-09-24, 02:07:04,VALID,1002.21,VALID,0,VALID,81.423,VALID,0,VALID,27.5577,VALID,8,VALID,1.42969,
2010-09-24, 02:08:04,VALID,1002.17,VALID,0,VALID,81.5985,VALID,0,VALID,27.5187,VALID,27,VALID,0.595703,
2010-09-24, 02:09:04,VALID,1002.19,VALID,0,VALID,81.5604,VALID,0,VALID,27.5208,VALID,6,VALID,2.24727,
2010-09-24, 02:10:04,VALID,1002.22,VALID,0,VALID,81.7511,VALID,0,VALID,27.5013,VALID,33,VALID,0.7625,
2010-09-24, 02:11:04,VALID,1002.22,VALID,0,VALID,81.9265,VALID,0,VALID,27.4818,VALID,66,VALID,1.51563,
2010-09-24, 02:12:04,VALID,1002.22,VALID,0,VALID,81.9037,VALID,0,VALID,27.4818,VALID,31,VALID,1.34531,
2010-09-24, 02:13:04,VALID,1002.23,VALID,0,VALID,81.9265,VALID,0,VALID,27.4797,VALID,18,VALID,1.28867,
2010-09-24, 02:14:04,VALID,1002.25,VALID,0,VALID,82.0257,VALID,0.100563,VALID,27.4602,VALID,15,VALID,1.26523,
2010-09-24, 02:15:04,VALID,1002.24,VALID,0,VALID,81.835,VALID,0.100563,VALID,27.5208,VALID,22,VALID,1.70586,
2010-09-24, 02:16:04,VALID,1002.27,VALID,0,VALID,81.7969,VALID,0,VALID,27.4992,VALID,24,VALID,1.31016,
2010-09-24, 02:17:04,VALID,1002.29,VALID,0,VALID,81.8503,VALID,0,VALID,27.5208,VALID,24,VALID,2.03555,
2010-09-24, 02:18:04,VALID,1002.31,VALID,0,VALID,81.8884,VALID,0.100563,VALID,27.5187,VALID,21,VALID,1.8543,
2010-09-24, 02:19:04,VALID,1002.33,VALID,0,VALID,81.7435,VALID,0,VALID,27.5382,VALID,20,VALID,1.19102,
2010-09-24, 02:20:04,VALID,1002.33,VALID,0,VALID,81.8274,VALID,0,VALID,27.5187,VALID,23,VALID,1.16797,
2010-09-24, 02:21:04,VALID,1002.37,VALID,0,VALID,81.8655,VALID,0,VALID,27.5382,VALID,31,VALID,1.19062,
2010-09-24, 02:22:04,VALID,1002.33,VALID,0,VALID,81.7892,VALID,0,VALID,27.5598,VALID,29,VALID,2.20195,
2010-09-24, 02:23:04,VALID,1002.31,VALID,0,VALID,81.4841,VALID,0,VALID,27.5966,VALID,10,VALID,2.71758,
2010-09-24, 02:24:04,VALID,1002.36,VALID,0,VALID,81.4002,VALID,0,VALID,27.6572,VALID,21,VALID,1.70703,
2010-09-24, 02:25:04,VALID,1002.38,VALID,0,VALID,81.2018,VALID,0.100563,VALID,27.6356,VALID,36,VALID,0.942578,
2010-09-24, 02:26:04,VALID,1002.42,VALID,0,VALID,81.2476,VALID,0,VALID,27.6161,VALID,24,VALID,2.39297,
2010-09-24, 02:27:04,VALID,1002.42,VALID,0,VALID,81.507,VALID,0,VALID,27.5966,VALID,29,VALID,1.23594,
2010-09-24, 02:28:04,VALID,1002.44,VALID,0,VALID,81.6061,VALID,0,VALID,27.5792,VALID,18,VALID,1.74766,
2010-09-24, 02:29:04,VALID,1002.47,VALID,0,VALID,81.5298,VALID,0,VALID,27.5792,VALID,13,VALID,3.3418,
2010-09-24, 02:30:04,VALID,1002.48,VALID,0,VALID,81.4154,VALID,0,VALID,27.5966,VALID,359,VALID,2.45117,
2010-09-24, 02:31:04,VALID,1002.46,VALID,0,VALID,81.423,VALID,0,VALID,27.5966,VALID,5,VALID,2.36367,
2010-09-24, 02:32:04,VALID,1002.46,VALID,0,VALID,81.5756,VALID,0,VALID,27.5987,VALID,19,VALID,3.18477,
2010-09-24, 02:33:04,VALID,1002.44,VALID,0,VALID,81.6367,VALID,0,VALID,27.5987,VALID,19,VALID,0.972656,
2010-09-24, 02:34:04,VALID,1002.48,VALID,0,VALID,81.774,VALID,0,VALID,27.5792,VALID,10,VALID,1.7668,
2010-09-24, 02:35:04,VALID,1002.48,VALID,0,VALID,81.7282,VALID,0,VALID,27.5987,VALID,25,VALID,2.12734,
2010-09-24, 02:36:04,VALID,1002.46,VALID,0,VALID,81.629,VALID,0,VALID,27.6377,VALID,13,VALID,2.8625,
2010-09-24, 02:37:04,VALID,1002.49,VALID,0,VALID,81.5832,VALID,0,VALID,27.6572,VALID,19,VALID,1.47187,
2010-09-24, 02:38:04,VALID,1002.47,VALID,0,VALID,81.5604,VALID,0,VALID,27.6572,VALID,25,VALID,2.42539,
2010-09-24, 02:39:04,VALID,1002.49,VALID,0,VALID,81.896,VALID,0,VALID,27.5577,VALID,25,VALID,1.58516,
2010-09-24, 02:40:04,VALID,1002.51,VALID,0,VALID,82.1859,VALID,0,VALID,27.5187,VALID,18,VALID,1.84531,
2010-09-24, 02:41:04,VALID,1002.5,VALID,0,VALID,82.247,VALID,0,VALID,27.5208,VALID,14,VALID,2.30469,
2010-09-24, 02:42:04,VALID,1002.54,VALID,0,VALID,82.3461,VALID,0,VALID,27.5208,VALID,3,VALID,1.71992,
2010-09-24, 02:43:04,VALID,1002.53,VALID,0,VALID,82.247,VALID,0,VALID,27.4992,VALID,20,VALID,2.49727,
2010-09-24, 02:44:04,VALID,1002.54,VALID,0,VALID,82.2317,VALID,0,VALID,27.5187,VALID,24,VALID,1.81797,
2010-09-24, 02:45:04,VALID,1002.59,VALID,0,VALID,82.2241,VALID,0,VALID,27.5187,VALID,360,VALID,2.02148,
2010-09-24, 02:46:04,VALID,1002.59,VALID,0,VALID,82.3385,VALID,0,VALID,27.5187,VALID,23,VALID,1.21484,
2010-09-24, 02:47:04,VALID,1002.57,VALID,0,VALID,81.9037,VALID,0,VALID,27.5382,VALID,30,VALID,2.25664,
2010-09-24, 02:48:04,VALID,1002.6,VALID,0,VALID,81.9799,VALID,0,VALID,27.5792,VALID,6,VALID,1.47227,
2010-09-24, 02:49:04,VALID,1002.6,VALID,0,VALID,81.9876,VALID,0,VALID,27.5187,VALID,354,VALID,2.02734,
2010-09-24, 02:50:04,VALID,1002.6,VALID,0,VALID,81.9189,VALID,0,VALID,27.5208,VALID,360,VALID,2.4168,
2010-09-24, 02:51:04,VALID,1002.62,VALID,0,VALID,81.7358,VALID,0.100563,VALID,27.5792,VALID,24,VALID,2.32773,
2010-09-24, 02:52:04,VALID,1002.61,VALID,0,VALID,81.7587,VALID,0,VALID,27.6182,VALID,21,VALID,1.93242,
2010-09-24, 02:53:04,VALID,1002.63,VALID,0,VALID,81.6519,VALID,0,VALID,27.5966,VALID,11,VALID,1.42422,
2010-09-24, 02:54:04,VALID,1002.65,VALID,0,VALID,81.1865,VALID,0,VALID,27.5966,VALID,21,VALID,2.63594,
2010-09-24, 02:55:04,VALID,1002.68,VALID,0,VALID,81.034,VALID,0,VALID,27.6356,VALID,29,VALID,2.33906,
2010-09-24, 02:56:04,VALID,1002.69,VALID,0,VALID,81.301,VALID,0,VALID,27.6356,VALID,17,VALID,1.46758,
2010-09-24, 02:57:04,VALID,1002.7,VALID,0,VALID,81.2247,VALID,0,VALID,27.5966,VALID,17,VALID,1.54688,
2010-09-24, 02:58:04,VALID,1002.68,VALID,0,VALID,81.2171,VALID,0,VALID,27.6182,VALID,22,VALID,1.95078,
2010-09-24, 02:59:04,VALID,1002.69,VALID,0,VALID,80.9806,VALID,0,VALID,27.5772,VALID,31,VALID,2.03555,
2010-09-24, 03:00:04,VALID,1002.72,VALID,0,VALID,81.2094,VALID,0,VALID,27.5987,VALID,49,VALID,1.76758,
2010-09-24, 03:01:04,VALID,1002.73,VALID,0,VALID,80.8051,VALID,0,VALID,27.5987,VALID,34,VALID,1.78164,
2010-09-24, 03:02:04,VALID,1002.73,VALID,0,VALID,80.8127,VALID,0,VALID,27.6182,VALID,26,VALID,2.38203,
2010-09-24, 03:03:04,VALID,1002.75,VALID,0,VALID,81.034,VALID,0,VALID,27.5987,VALID,25,VALID,1.43711,
2010-09-24, 03:04:04,VALID,1002.76,VALID,0,VALID,81.1637,VALID,0,VALID,27.5187,VALID,19,VALID,1.17344,
2010-09-24, 03:05:04,VALID,1002.82,VALID,0,VALID,81.3391,VALID,0,VALID,27.4992,VALID,37,VALID,1.50547,
2010-09-24, 03:06:04,VALID,1002.81,VALID,0,VALID,81.5146,VALID,0,VALID,27.4602,VALID,30,VALID,1.2043,
2010-09-24, 03:07:04,VALID,1002.85,VALID,0,VALID,81.7282,VALID,0,VALID,27.4408,VALID,14,VALID,1.03125,
2010-09-24, 03:08:04,VALID,1002.86,VALID,0,VALID,81.7206,VALID,0.100563,VALID,27.4213,VALID,25,VALID,1.87695,
2010-09-24, 03:09:04,VALID,1002.89,VALID,0,VALID,81.896,VALID,0,VALID,27.4213,VALID,29,VALID,0.764453,
2010-09-24, 03:10:04,VALID,1002.88,VALID,0,VALID,81.8121,VALID,0.100563,VALID,27.4039,VALID,18,VALID,1.12773,
2010-09-24, 03:11:04,VALID,1002.88,VALID,0,VALID,82.0486,VALID,0,VALID,27.3628,VALID,7,VALID,1.19844,
2010-09-24, 03:12:04,VALID,1002.87,VALID,0,VALID,82.2546,VALID,0,VALID,27.3238,VALID,355,VALID,0.551953,
2010-09-24, 03:13:04,VALID,1002.9,VALID,0,VALID,82.3538,VALID,0,VALID,27.3259,VALID,20,VALID,0.771875,
2010-09-24, 03:14:04,VALID,1002.9,VALID,0,VALID,82.6437,VALID,0,VALID,27.2849,VALID,11,VALID,0.866797,
2010-09-24, 03:15:04,VALID,1002.9,VALID,0,VALID,82.7123,VALID,0,VALID,27.2459,VALID,77,VALID,0.850781,
2010-09-24, 03:16:04,VALID,1002.89,VALID,0,VALID,82.8954,VALID,0,VALID,27.248,VALID,28,VALID,0.780859,
2010-09-24, 03:17:04,VALID,1002.91,VALID,0,VALID,83.0175,VALID,0,VALID,27.2069,VALID,75,VALID,0.421094,
2010-09-24, 03:18:04,VALID,1002.92,VALID,0,VALID,83.0404,VALID,0.100563,VALID,27.2069,VALID,40,VALID,0.425781,
2010-09-24, 03:19:04,VALID,1002.95,VALID,0,VALID,83.2158,VALID,0,VALID,27.17,VALID,40,VALID,0.209375,
2010-09-24, 03:20:04,VALID,1002.94,VALID,0,VALID,83.2921,VALID,0,VALID,27.17,VALID,40,VALID,0.404297,
2010-09-24, 03:21:04,VALID,1002.93,VALID,0,VALID,83.6736,VALID,0,VALID,27.1311,VALID,40,VALID,0.18125,
2010-09-24, 03:22:04,VALID,1002.94,VALID,0,VALID,83.7651,VALID,0,VALID,27.0706,VALID,19,VALID,0.499609,
2010-09-24, 03:23:04,VALID,1002.94,VALID,0,VALID,83.9711,VALID,0,VALID,27.0726,VALID,26,VALID,0.465625,
2010-09-24, 03:24:04,VALID,1002.97,VALID,0,VALID,83.7804,VALID,0,VALID,27.0511,VALID,17,VALID,0.49375,
2010-09-24, 03:25:04,VALID,1002.99,VALID,0,VALID,83.6125,VALID,0,VALID,27.09,VALID,329,VALID,0.800781,
2010-09-24, 03:26:04,VALID,1003.04,VALID,0,VALID,83.7117,VALID,0,VALID,27.09,VALID,100,VALID,0.515625,
2010-09-24, 03:27:04,VALID,1003.04,VALID,0,VALID,83.7498,VALID,0.100563,VALID,27.0706,VALID,100,VALID,0.105469,
2010-09-24, 03:28:04,VALID,1003.08,VALID,0,VALID,83.7422,VALID,0,VALID,27.0706,VALID,44,VALID,0.628906,
2010-09-24, 03:29:04,VALID,1003.09,VALID,0,VALID,83.9177,VALID,0,VALID,27.0726,VALID,1,VALID,0.525391,
2010-09-24, 03:30:04,VALID,1003.09,VALID,0,VALID,83.8185,VALID,0,VALID,27.0511,VALID,29,VALID,0.480078,
2010-09-24, 03:31:04,VALID,1003.14,VALID,0,VALID,83.8643,VALID,0,VALID,27.0511,VALID,56,VALID,0.179297,
2010-09-24, 03:32:04,VALID,1003.12,VALID,0,VALID,84.0626,VALID,0,VALID,27.0336,VALID,99,VALID,0.549609,
2010-09-24, 03:33:04,VALID,1003.15,VALID,0,VALID,84.0397,VALID,0,VALID,27.0121,VALID,42,VALID,0.676172,
2010-09-24, 03:34:04,VALID,1003.16,VALID,0,VALID,83.994,VALID,0,VALID,27.0336,VALID,24,VALID,0.548828,
2010-09-24, 03:35:04,VALID,1003.2,VALID,0,VALID,84.0474,VALID,0,VALID,27.0726,VALID,354,VALID,0.561719,
2010-09-24, 03:36:04,VALID,1003.18,VALID,0,VALID,83.9329,VALID,0,VALID,27.0531,VALID,354,VALID,0.153125,
2010-09-24, 03:37:04,VALID,1003.22,VALID,0,VALID,83.9101,VALID,0,VALID,27.0316,VALID,337,VALID,0.436328,
2010-09-24, 03:38:04,VALID,1003.22,VALID,0,VALID,84.0931,VALID,0,VALID,27.0316,VALID,13,VALID,0.993359,
2010-09-24, 03:39:04,VALID,1003.23,VALID,0,VALID,83.8414,VALID,0,VALID,27.0706,VALID,14,VALID,1.03555,
2010-09-24, 03:40:04,VALID,1003.27,VALID,0,VALID,83.727,VALID,0.100563,VALID,27.0706,VALID,19,VALID,0.483203,
2010-09-24, 03:41:04,VALID,1003.26,VALID,0,VALID,83.7804,VALID,0,VALID,27.09,VALID,4,VALID,0.405469,
2010-09-24, 03:42:04,VALID,1003.26,VALID,0,VALID,83.8948,VALID,0.100563,VALID,27.09,VALID,50,VALID,0.281641,
2010-09-24, 03:43:04,VALID,1003.29,VALID,0,VALID,83.849,VALID,0.100563,VALID,27.0511,VALID,50,VALID,0.40625,